WB8ZTP Weather Reports


Display with metric or nautical units.
time (UTC)temp
F
wind
direction
speed
MPH
gust
MPH
rain 1hr
in
rain 24hr
in
rain mn
in
humidity
%
barometer
mb
20260831163003 83 314 2.0 5.0 0.00 0.00 0.00 74 1020.4
20260831161559 83 251 2.0 7.0 0.00 0.00 0.00 75 1020.5
20260831160057 82 203 3.0 7.0 0.00 0.00 0.00 77 1020.5
20260831154606 82 195 1.0 7.0 0.00 0.00 0.00 77 1020.4
20260831153053 81 299 2.0 5.0 0.00 0.00 0.00 77 1020.4
20260831151549 80 220 2.0 7.0 0.00 0.00 0.00 79 1020.3
20260831150047 79 184 3.0 5.0 0.00 0.00 0.00 81 1020.3
20260831144546 79 227 3.0 9.0 0.00 0.00 0.00 81 1020.2
20260831143051 77 198 2.0 8.0 0.00 0.00 0.00 84 1020.2
20260831141538 76 216 3.0 7.0 0.00 0.00 0.00 85 1020.0
20260831140035 75 169 2.0 6.0 0.00 0.00 0.00 87 1020.1
20260831134532 74 206 1.0 8.0 0.00 0.00 0.00 88 1020.3
20260831133029 74 198 2.0 6.0 0.00 0.00 0.00 90 1020.2
20260831131537 73 175 2.0 4.0 0.00 0.00 0.00 91 1020.4
20260831130025 72 175 0.0 1.0 0.00 0.00 0.00 91 1020.4
20260831124527 72 175 0.0 1.0 0.00 0.00 0.00 91 1020.4
20260831123022 72 175 0.0 2.0 0.00 0.00 0.00 91 1020.3
20260831121522 71 175 0.0 2.0 0.00 0.00 0.00 91 1020.2
20260831120020 71 175 0.0 2.0 0.00 0.00 0.00 91 1020.2
20260831114519 71 174 1.0 3.0 0.00 0.00 0.00 91 1020.1
20260831113021 71 185 0.0 3.0 0.00 0.00 0.00 90 1019.9
20260831111517 70 192 0.0 3.0 0.00 0.00 0.00 91 1019.9
20260831110016 70 231 0.0 1.0 0.00 0.00 0.00 91 1019.8
20260831104516 70 231 0.0 2.0 0.00 0.00 0.00 91 1019.7
20260831103015 70 231 0.0 1.0 0.00 0.00 0.00 91 1019.5
20260831101515 70 231 0.0 0.0 0.00 0.00 0.00 91 1019.6
20260831100014 70 231 0.0 1.0 0.00 0.00 0.00 91 1019.6
20260831094514 70 231 0.0 2.0 0.00 0.00 0.00 91 1019.5
20260831093015 70 238 0.0 2.0 0.00 0.00 0.00 91 1019.5
20260831091512 70 246 0.0 0.0 0.00 0.00 0.00 91 1019.6
20260831090013 70 246 0.0 0.0 0.00 0.00 0.00 91 1019.6
20260831084512 70 246 0.0 1.0 0.00 0.00 0.00 91 1019.6
20260831083016 70 246 0.0 0.0 0.00 0.00 0.00 91 1019.5
20260831081510 70 246 0.0 1.0 0.00 0.00 0.00 91 1019.4
20260831080010 69 327 0.0 0.0 0.00 0.00 0.00 91 1019.4
20260831074508 69 327 0.0 0.0 0.00 0.00 0.00 91 1019.5
20260831073013 69 327 0.0 0.0 0.00 0.00 0.00 91 1019.6
20260831071506 69 327 0.0 0.0 0.00 0.00 0.00 91 1019.6
20260831070011 69 327 0.0 0.0 0.00 0.00 0.00 91 1019.8
20260831064504 69 327 0.0 0.0 0.00 0.00 0.00 91 1019.8
20260831063003 69 327 0.0 0.0 0.00 0.00 0.00 91 1019.8
20260831061503 69 327 0.0 0.0 0.00 0.00 0.00 91 1019.9
20260831060000 69 327 0.0 0.0 0.00 0.00 0.00 91 1020.0
20260831054600 69 327 0.0 0.0 0.00 0.00 0.00 91 1020.1
20260831053059 70 327 0.0 0.0 0.00 0.00 0.00 91 1020.2
20260831051557 70 327 0.0 0.0 0.00 0.00 0.00 91 1020.4
20260831050055 70 327 0.0 0.0 0.00 0.00 0.00 91 1020.4
20260831044603 70 327 0.0 0.0 0.00 0.00 0.00 91 1020.4
20260831043052 70 327 0.0 0.0 0.00 0.00 0.00 91 1020.5
20260831041642 70 327 0.0 0.0 0.00 0.00 0.00 91 1020.5
20260831040049 71 327 0.0 0.0 0.00 0.00 0.00 91 1020.5
20260831034549 71 327 0.0 0.0 0.00 0.00 0.00 91 1020.4
20260831033048 71 327 0.0 0.0 0.00 0.00 0.00 91 1020.6
20260831031547 71 327 0.0 0.0 0.00 0.00 0.00 91 1020.5
20260831030053 71 327 0.0 0.0 0.00 0.00 0.00 91 1020.5
20260831024600 71 327 0.0 0.0 0.00 0.00 0.00 91 1020.6
20260831023045 71 327 0.0 0.0 0.00 0.00 0.00 91 1020.7
20260831021551 71 327 0.0 1.0 0.00 0.00 0.00 90 1020.8
20260831020045 71 327 0.0 0.0 0.00 0.00 0.00 90 1020.8
20260831014544 71 327 0.0 1.0 0.00 0.00 0.00 90 1020.8
20260831013048 72 327 0.0 0.0 0.00 0.00 0.00 90 1020.9
20260831011552 72 327 0.0 0.0 0.00 0.00 0.00 90 1020.7
20260831004543 73 327 0.0 0.0 0.00 0.00 0.00 89 1020.4
20260831003041 73 327 0.0 0.0 0.00 0.00 0.00 88 1020.2
20260831001542 74 327 0.0 0.0 0.00 0.00 0.00 87 1019.9
20260831000055 75 327 0.0 0.0 0.00 0.00 0.00 87 1019.7
20260830234541 75 327 0.0 0.0 0.00 0.00 0.00 86 1019.6
20260830233040 76 327 0.0 0.0 0.00 0.00 0.00 86 1019.5
20260830231543 76 327 0.0 0.0 0.00 0.00 0.00 85 1019.4
20260830230050 77 327 0.0 0.0 0.00 0.00 0.00 86 1019.3
20260830224539 78 327 0.0 1.0 0.00 0.00 0.00 82 1019.1
20260830223054 79 327 0.0 0.0 0.00 0.00 0.00 79 1019.2
20260830221539 81 327 0.0 0.0 0.00 0.00 0.00 76 1019.1
20260830220038 82 327 0.0 0.0 0.00 0.00 0.00 71 1018.9
20260830214538 83 327 0.0 1.0 0.00 0.00 0.00 70 1018.8
20260830213038 83 327 0.0 1.0 0.00 0.00 0.00 68 1018.6
20260830211535 83 327 0.0 1.0 0.00 0.00 0.00 68 1018.7
20260830210035 81 327 0.0 1.0 0.00 0.00 0.00 74 1018.8
20260830204533 81 327 0.0 1.0 0.00 0.00 0.00 74 1019.1
20260830203035 81 327 0.0 1.0 0.00 0.00 0.00 73 1019.0
20260830201533 80 327 0.0 3.0 0.00 0.00 0.00 71 1020.0
20260830200025 80 13 2.0 5.0 0.00 0.00 0.00 72 1020.6
20260830194523 80 355 1.0 6.0 0.00 0.00 0.00 73 1021.0
20260830193021 80 355 2.0 7.0 0.00 0.00 0.00 73 1021.2
20260830191521 80 360 2.0 6.0 0.00 0.00 0.00 71 1021.3
20260830190021 81 9 3.0 9.0 0.00 0.00 0.00 69 1021.5
20260830184525 82 360 0.0 8.0 0.00 0.00 0.00 67 1021.5
20260830183020 83 323 1.0 5.0 0.00 0.00 0.00 68 1021.7
20260830181517 83 275 3.0 6.0 0.00 0.00 0.00 67 1021.8
20260830180016 83 198 1.0 9.0 0.00 0.00 0.00 69 1021.7
20260830174520 83 181 1.0 8.0 0.00 0.00 0.00 67 1021.8
20260830173014 83 360 2.0 5.0 0.00 0.00 0.00 71 1022.1
20260830171512 82 187 2.0 5.0 0.00 0.00 0.00 70 1022.2
20260830170010 81 17 2.0 6.0 0.00 0.00 0.00 73 1022.3
20260830164509 81 277 2.0 5.0 0.00 0.00 0.00 74 1022.6